Starlink 32473

operational
NORAD ID: 62049 Int'l Des: 2024-216 Owner: SPXS Country: US Constellation: starlink
LEOCIRCULAR

About Starlink 32473

Description loading...

Live Position

Loading 3D Globe...

Upcoming Passes

Altitude History

Altitude vs Time

uPlot chart will show altitude changes over time

Two-Line Element Set

1 62049U 24216T 25305.58951899 .00030953 00000-0 11297-2 0 9997
2 62049 43.0049 259.8295 0002142 268.5390 91.5217 15.27577384 53120
Epoch: Nov 1, 2025 • Age: 16 hours

Current Status

Altitude 482.3 km
Velocity 7.63 km/s
Sub-Earth Point 12.48°N, 139.19°E
Launch Date Nov 21, 2024
Age 0.9 years
Type internet

Technical Details

Classification Payload
Mass 730.00 kg
Dry Mass 700.00 kg
Total Mass 730.00 kg
Length 0.30 m
Diameter 4.10 m
Span 29.00 m
Shape Box + pan
Manufacturer SPXS
Bus Type Starlink V2M
Phase Status In Orbit
Owner/State SPXS/US

Large Constellations

Loading constellations...